Flag for Canada Weather past 2 weeks in Peterborough, Ontario, Canada

Now
73 °F

Passing clouds.


Feels Like: 75 °F
Forecast: 63 / 79 °F
Wind: 15 mph from South

Location: Peterborough Airport

Current Time: May 27, 2015 at 12:44:09 PM

Latest Report: May 27, 2015 at 12:00 PM


Visibility: 9 mi

Pressure: 29.98 "Hg

Humidity: 74%

Dew point: 64 °F

Location of PeterboroughLocation

Historic Weather in Peterborough — Graph

°F

Peterborough temperature yesterday

Maximum temperature yesterday: 81 °F (at 12:00 PM)
Minimum temperature yesterday: 64 °F (at 11:00 PM)
Average temperature yesterday: 74 °F

Past Weeks' High & Low Weather Summary

 TemperatureHumidityPressure
High81 °F (May 18, 4:00 PM)100% (May 14, 6:00 AM)30.49 "Hg (May 14, 6:00 AM)
Low28 °F (May 23, 3:00 AM)23% (May 20, 5:00 PM)29.79 "Hg (May 12, 12:00 PM)
Average57 °F67%30.09 "Hg
* Reported May 12 12:00 Noon — May 27 11:00 AM, Peterborough, Weather by CustomWeather, © 2015

Note: Actual official high and low records may vary slightly from our data, if they occured in-between our weather recording intervals... More about our weather records

Advertising

Peterborough weather history for previous 24 hours

 ConditionsComfort  
Time TempWeatherWind HumidityBarometerVisibility
11:00 AM
Wed, May 27
73 °FPartly sunny.14 mph74%29.97 "Hg9 mi
10:53 AM73 °FPartly sunny.13 mph74%29.96 "Hg9 mi
10:00 AM72 °FScattered clouds.13 mph78%29.96 "Hg9 mi
9:00 AM70 °FBroken clouds.7 mph83%29.96 "Hg9 mi
8:00 AM68 °FMore clouds than sun.8 mph88%29.96 "Hg9 mi
7:00 AM66 °FMostly cloudy.6 mph88%29.94 "Hg9 mi
6:00 AM64 °FMostly cloudy.7 mph88%29.93 "Hg9 mi
5:00 AM64 °FOvercast.7 mph88%29.93 "Hg9 mi
4:00 AM63 °FPassing clouds.3 mph94%29.92 "Hg9 mi
3:00 AM61 °FClear.3 mph94%29.93 "Hg9 mi
2:04 AM59 °FFog.No wind100%29.94 "Hg2 mi
1:00 AM61 °FClear.No wind94%29.96 "Hg7 mi
12:00 AM63 °FPassing clouds.No wind94%29.98 "Hg9 mi
11:00 PM
Tue, May 26
64 °FClear.3 mph88%29.98 "Hg9 mi
10:00 PM68 °FClear.7 mph83%29.98 "Hg9 mi
9:00 PM72 °FScattered clouds.5 mph73%29.97 "Hg9 mi
8:00 PM75 °FSunny.7 mph65%29.97 "Hg9 mi
7:00 PM79 °FSunny.10 mph58%29.98 "Hg9 mi
6:00 PM79 °FSunny.12 mph61%30.00 "Hg9 mi
5:00 PM79 °FSunny.17 mph58%30.01 "Hg9 mi
4:00 PM79 °FSunny.14 mph61%30.02 "Hg9 mi
3:00 PM81 °FSunny.15 mph58%30.03 "Hg9 mi
2:00 PM81 °FSunny.13 mph58%30.04 "Hg9 mi
1:00 PM81 °FPassing clouds.13 mph58%30.04 "Hg9 mi
12:00 PM81 °FPassing clouds.12 mph54%30.04 "Hg9 mi
Weather by CustomWeather, © 2015

See weather overviewHow to use our weather pages